Location: Qu�bec
(46.8000°N, 71.2500°W)
Time: 09:41:57
(UTC-04:00)

Envisat - Visible Passes

Search period start: 23 October 2017 00:00
Search period end: 02 November 2017 00:00
Orbit: 764 x 766 km, 98.2° (Epoch: 23 October)

Date Brightness Start Highest point End Pass type
(mag) Time Alt. Az. Time Alt. Az. Time Alt. Az.
23 Oct 3.5 19:47:49 40° NE 19:47:49 40° NE 19:52:03 10° N visible
23 Oct 5.1 21:28:03 23° WNW 21:28:03 23° WNW 21:30:47 10° NW visible
24 Oct 4.2 19:10:51 22° ENE 19:10:53 22° ENE 19:14:43 10° NNE visible
24 Oct 4.1 20:51:03 40° NW 20:51:03 40° NW 20:54:32 10° NNW visible
25 Oct 4.8 18:33:51 11° ENE 18:34:41 11° NE 18:36:19 10° NE visible
25 Oct 3.5 20:14:04 49° N 20:14:04 49° N 20:17:51 10° N visible
25 Oct 5.8 21:54:17 14° WNW 21:54:17 14° WNW 21:55:32 10° NW visible
26 Oct 3.8 19:37:05 32° NE 19:37:05 32° NE 19:40:49 10° N visible
26 Oct 5.0 21:17:18 25° NW 21:17:18 25° NW 21:19:52 10° NNW visible
27 Oct 4.4 19:00:05 18° ENE 19:00:05 18° ENE 19:03:18 10° NNE visible
27 Oct 4.1 20:40:18 38° NNW 20:40:18 38° NNW 20:43:29 10° NNW visible
28 Oct 3.8 20:03:19 39° NNE 20:03:19 39° NNE 20:06:41 10° N visible
28 Oct 5.7 21:43:31 15° NW 21:43:31 15° NW 21:44:52 10° NW visible
29 Oct 4.1 19:26:18 26° NE 19:26:18 26° NE 19:29:32 10° N visible
29 Oct 4.9 21:06:31 25° NW 21:06:31 25° NW 21:08:54 10° NNW visible
30 Oct 4.6 18:49:19 15° NE 18:49:19 15° NE 18:51:47 10° NNE visible
30 Oct 4.2 20:29:32 34° NNW 20:29:32 34° NNW 20:32:23 10° NNW visible
31 Oct 4.0 19:52:31 32° NNE 19:52:31 32° NNE 19:55:30 10° N visible
31 Oct 5.6 21:32:44 16° NW 21:32:44 16° NW 21:34:04 10° NW visible
01 Nov 4.4 19:15:31 21° NE 19:15:31 21° NE 19:18:13 10° N visible
01 Nov 4.9 20:55:44 25° NNW 20:55:44 25° NNW 20:57:54 10° NNW visible
